Location: Bullenkuhlen
(53.7689°N, 9.7495°E)
Time: 18:00:19
(UTC+00:00)

ATLAS 5 CENTAUR R/B - Pass Details

Date: 09 April 2020
Orbit: 543 x 1116 km, 63.4° (Epoch: 01 May)

Event Time Altitude Azimuth Distance (km) Brightness Sun altitude
Rises 21:45:25 0° 270° (W) 2,868 5.3 -24.9°
Reaches altitude 10° 21:47:45 10° 280° (W) 2,032 4.6 -25.1°
Maximum altitude 21:51:55 32° 345° (NNW) 1,188 3.5 -25.3°
Drops below altitude 10° 21:56:41 10° 49° (NE) 2,343 4.7 -25.6°
Sets 21:59:33 0° 59° (ENE) 3,382 5.4 -25.8°
